Reno, NV

2:35 PM PDT on October 18, 2019 (GMT -0700)
Reno-Tahoe International

Weather History for KRNO - August, 2019

Change the Weather History Date:

Saturday, August 31, 2019

  Actual Average Record
Temperature  
Mean Temperature 76 °F 70 °F  
Max Temperature 95 °F 87 °F 100 °F (1976)
Min Temperature 57 °F 53 °F 31 °F (1966)
Degree Days  
Heating Degree Days 0 1  
Month to date heating degree days 0 2  
Since 1 June heating degree days 15 66  
Since 1 July heating degree days 0 10  
Cooling Degree Days 11 5  
Month to date cooling degree days 400 259  
Year to date cooling degree days 991 746  
Since 1 June cooling degree days 977 709  
Growing Degree Days 26 (Base 50)    
Moisture  
Dew Point 34 °F    
Average Humidity 25    
Maximum Humidity 42    
Minimum Humidity 7    
Precipitation  
Precipitation 0.00 in 0.01 in 0.23 in (1907)
Month to date precipitation T 0.23  
Year to date precipitation 8.76 4.69  
Snow  
Snow 0.00 in 0.00 in 0.00 in ()
Month to date snowfall 0.0 0.0  
Since 1 June snowfall 0.0 T  
Since 1 July snowfall 0.0 0.0  
Snow Depth 0.00 in    
Sea Level Pressure  
Sea Level Pressure 29.94 in    
Wind  
Wind Speed 5 mph ()    
Max Wind Speed 21 mph    
Max Gust Speed 24 mph    
Visibility 10.0 miles    
Events      
T = Trace of Precipitation, MM = Missing Value Source: Averaged Metar Reports

Daily Weather History Graph

Daily Weather History Graph

Search for Another Location

Airport or City:

Astronomy

Aug. 31, 2019 Rise Set
Actual Time 6:26 AM PDT 7:31 PM PDT
Civil Twilight 5:58 AM PDT 7:59 PM PDT
Nautical Twilight 5:25 AM PDT 8:32 PM PDT
Astronomical Twilight 4:51 AM PDT 9:06 PM PDT
Moon 7:48 AM PDT (8/31) 8:48 PM PDT (8/31)
Length of Visible Light 14h 00m
Length of Day
13h 05m
Waxing Crescent, 3% of the Moon is Illuminated
Aug 31
Waxing Crescent
Sep 5
First Quarter
Sep 13
Full
Sep 21
Last Quarter
Sep 28
New

Hourly Weather History & Observations

Time (PDT) Temp. Dew Point Humidity Pressure Visibility Wind Dir Wind Speed Gust Speed Precip Events Conditions
12:55 AM 64.9 °F 36.0 °F 34% 29.98 in 10.0 mi SSW 3.5 mph - N/A   Clear
1:55 AM 66.0 °F 36.0 °F 33% 29.96 in 10.0 mi West 4.6 mph - N/A   Clear
2:55 AM 63.0 °F 37.0 °F 38% 29.96 in 10.0 mi WNW 3.5 mph - N/A   Clear
3:55 AM 63.0 °F 35.1 °F 35% 29.96 in 10.0 mi WSW 3.5 mph - N/A   Clear
4:55 AM 61.0 °F 36.0 °F 39% 29.97 in 10.0 mi West 3.5 mph - N/A   Clear
5:55 AM 59.0 °F 36.0 °F 42% 30.00 in 10.0 mi Calm Calm - N/A   Clear
6:55 AM 61.0 °F 37.0 °F 41% 30.00 in 10.0 mi WSW 4.6 mph - N/A   Clear
7:55 AM 61.0 °F 37.0 °F 41% 30.02 in 10.0 mi Calm Calm - N/A   Clear
8:55 AM 66.9 °F 37.0 °F 33% 30.01 in 10.0 mi Calm Calm - N/A   Clear
9:55 AM 71.1 °F 37.0 °F 29% 29.99 in 10.0 mi Calm Calm - N/A   Clear
10:55 AM 78.1 °F 37.0 °F 23% 29.96 in 10.0 mi ESE 3.5 mph - N/A   Clear
11:55 AM 84.9 °F 34.0 °F 16% 29.95 in 10.0 mi Variable 3.5 mph - N/A   Clear
12:55 PM 90.0 °F 30.9 °F 12% 29.92 in 10.0 mi WSW 5.8 mph - N/A   Clear
1:55 PM 91.0 °F 30.9 °F 12% 29.89 in 10.0 mi West 5.8 mph - N/A   Clear
2:55 PM 93.0 °F 28.0 °F 10% 29.87 in 10.0 mi SSW 5.8 mph - N/A   Clear
3:55 PM 95.0 °F 21.9 °F 7% 29.85 in 10.0 mi North 13.8 mph 17.3 mph N/A   Clear
4:55 PM 93.9 °F 26.1 °F 9% 29.85 in 10.0 mi WNW 18.4 mph - N/A   Clear
5:55 PM 91.0 °F 28.9 °F 11% 29.86 in 10.0 mi West 18.4 mph - N/A   Clear
6:55 PM 87.1 °F 30.0 °F 13% 29.87 in 10.0 mi WNW 19.6 mph - N/A   Clear
7:55 PM 82.9 °F 30.9 °F 15% 29.91 in 10.0 mi NNW 11.5 mph - N/A   Clear
8:55 PM 80.1 °F 36.0 °F 20% 29.92 in 10.0 mi WNW 6.9 mph - N/A   Clear
9:55 PM 77.0 °F 37.0 °F 24% 29.94 in 10.0 mi North 11.5 mph - N/A   Clear
10:55 PM 73.9 °F 37.0 °F 26% 29.94 in 10.0 mi North 9.2 mph - N/A   Clear
11:55 PM 73.0 °F 37.0 °F 27% 29.93 in 10.0 mi NNW 8.1 mph - N/A   Clear